{"data":{"norad_id":67421,"epoch":"2026-09-19T08:52:48.837216Z","epoch_age_seconds":172749,"freshness":"FRESH","line1":"1 67421U 26005T   26262.37000969  .00013664  00000+0  50498-3 0  9993","line2":"2 67421  42.9999 224.5057 0001126 283.0281  77.0445 15.27590806 38318","mean_motion":15.27590806,"eccentricity":0.0001126,"inclination_deg":42.9999,"raan_deg":224.5057,"arg_perigee_deg":283.0281,"mean_anomaly_deg":77.0445,"bstar":0.00050498,"rev_number":3831,"period_min":94.266081881616,"perigee_km":482.24417326792,"apogee_km":483.78930508999,"semimajor_km":6861.153739179,"source":"CELESTRAK","updated_at":"2026-09-20T09:00:43.522593Z"}}